Location: Derby
(52.9213°N, 1.4761°W)
Time: 16:41:19
(UTC+01:00)

Vanguard 1 - Pass Details

Date: 20 May 2025
Orbit: 649 x 3822 km, 34.3° (Epoch: 14 June)

Event Time Altitude Azimuth Distance (km) Brightness Sun altitude
Rises 18:20:21 0° 227° (SW) 7,528 15.2 22.2°
Reaches altitude 10° 18:27:00 10° 217° (SW) 6,084 14.6 21.2°
Maximum altitude 18:40:02 27° 170° (S) 3,691 13.0 19.3°
Drops below altitude 10° 18:48:36 10° 118° (ESE) 3,921 12.6 18.0°
Sets 18:51:45 0° 106° (ESE) 4,521 12.8 17.5°
